Location: Kellogg
(38.0159°N, 90.0546°W)
Time: 18:08:15
(UTC+00:00)

S-56A Canister/Altair - Pass Details

Date: 18 September 2024
Orbit: 636 x 2487 km, 38.9° (Epoch: 04 October)

Event Time Altitude Azimuth Distance (km) Brightness Sun altitude
Rises 23:37:44 0° 247° (WSW) 2,978 12.1 4.1°
Reaches altitude 10° 23:39:50 10° 245° (WSW) 2,143 11.3 3.6°
Maximum altitude 23:44:39 72° 161° (SSE) 864 7.8 2.7°
Drops below altitude 10° 23:51:18 10° 79° (ENE) 2,930 9.9 1.4°
Sets 23:54:37 0° 77° (ENE) 4,179 10.6 0.7°
